• In Slovakia
  • List of Countries
  • For 7 days
  • Water Temperature
  • Satellite Maps
  • Weather Map
  • Weather Widgets
  • user-avatar
    Login

    Hourly Weather Yerevan

    Today, 23 May, Wednesday

    Time Temperature Precipitation Wind Pressure Humidity
    00:00 +19°C° 0.5 mm 1 mps 693 mmHg 76%
    01:00 +19°C° 0.2 mm 1 mps 693 mmHg 77%
    02:00 +19°C° 0.2 mm 1 mps 693 mmHg 78%
    03:00 +18°C° 0.2 mm 1 mps 693 mmHg 79%
    04:00 +19°C° 0.1 mm 1 mps 693 mmHg 77%
    05:00 +19°C° 0.1 mm 1 mps 693 mmHg 75%
    06:00 +20°C° 0.1 mm 1 mps 693 mmHg 73%
    07:00 +21°C° 0.1 mm 1 mps 693 mmHg 67%
    08:00 +23°C° 0.1 mm 2 mps 693 mmHg 61%
    09:00 +24°C° 0.1 mm 2 mps 694 mmHg 55%
    10:00 +25°C° 0.2 mm 2 mps 693 mmHg 51%
    11:00 +26°C° 0.2 mm 3 mps 693 mmHg 48%
    12:00 +27°C° 0.2 mm 3 mps 693 mmHg 45%
    13:00 +27°C° 0.5 mm 3 mps 693 mmHg 44%
    14:00 +28°C° 0.5 mm 4 mps 693 mmHg 43%
    15:00 +28°C° 0.5 mm 4 mps 692 mmHg 42%
    16:00 +27°C° 0.5 mm 4 mps 692 mmHg 44%
    17:00 +27°C° 0.5 mm 4 mps 692 mmHg 47%
    18:00 +26°C° 0.5 mm 3 mps 692 mmHg 50%
    19:00 +24°C° 0.2 mm 3 mps 692 mmHg 54%
    20:00 +22°C° 0.2 mm 3 mps 692 mmHg 57%
    21:00 +20°C° 0.2 mm 3 mps 692 mmHg 61%
    22:00 +20°C° 0 mm 2 mps 692 mmHg 61%
    23:00 +19°C° 0 mm 2 mps 692 mmHg 62%

    Tomorrow, 24 May, Thursday

    Time Temperature Precipitation Wind Pressure Humidity
    00:00 +18°C° 0 mm 2 mps 692 mmHg 62%
    01:00 +18°C° 0 mm 2 mps 692 mmHg 62%
    02:00 +18°C° 0 mm 2 mps 692 mmHg 62%
    03:00 +17°C° 0 mm 2 mps 691 mmHg 62%
    04:00 +18°C° 0 mm 2 mps 691 mmHg 62%
    05:00 +18°C° 0 mm 2 mps 691 mmHg 61%
    06:00 +18°C° 0 mm 2 mps 691 mmHg 60%
    07:00 +21°C° 0 mm 1 mps 691 mmHg 54%
    08:00 +23°C° 0 mm 1 mps 691 mmHg 48%
    09:00 +24°C° 0 mm 1 mps 691 mmHg 42%
    10:00 +25°C° 0 mm 2 mps 691 mmHg 39%
    11:00 +26°C° 0 mm 2 mps 691 mmHg 36%
    12:00 +27°C° 0 mm 2 mps 690 mmHg 34%
    13:00 +28°C° 0 mm 2 mps 690 mmHg 33%
    14:00 +28°C° 0 mm 3 mps 690 mmHg 33%
    15:00 +28°C° 0 mm 3 mps 689 mmHg 32%
    16:00 +28°C° 0 mm 3 mps 689 mmHg 35%
    17:00 +27°C° 0 mm 2 mps 689 mmHg 38%
    18:00 +26°C° 0 mm 2 mps 689 mmHg 41%
    19:00 +25°C° 0 mm 2 mps 689 mmHg 45%
    20:00 +23°C° 0 mm 2 mps 689 mmHg 50%
    21:00 +20°C° 0 mm 2 mps 689 mmHg 54%
    22:00 +19°C° 0 mm 2 mps 689 mmHg 56%
    23:00 +19°C° 0 mm 2 mps 689 mmHg 58%

    Day after tomorrow, 25 May, Friday

    Time Temperature Precipitation Wind Pressure Humidity
    00:00 +18°C° 0 mm 2 mps 688 mmHg 60%
    01:00 +18°C° 0 mm 2 mps 688 mmHg 61%
    02:00 +18°C° 0 mm 1 mps 688 mmHg 62%
    03:00 +18°C° 0 mm 1 mps 688 mmHg 63%
    04:00 +19°C° 0 mm 1 mps 688 mmHg 62%
    05:00 +19°C° 0 mm 1 mps 688 mmHg 61%
    06:00 +20°C° 0 mm 1 mps 688 mmHg 60%
    07:00 +21°C° 0 mm 1 mps 688 mmHg 56%
    08:00 +23°C° 0 mm 1 mps 688 mmHg 51%
    09:00 +24°C° 0 mm 1 mps 688 mmHg 47%
    10:00 +25°C° 0.1 mm 2 mps 687 mmHg 46%
    11:00 +26°C° 0.1 mm 2 mps 687 mmHg 44%
    12:00 +27°C° 0.1 mm 2 mps 687 mmHg 43%
    13:00 +27°C° 0.3 mm 2 mps 687 mmHg 42%
    14:00 +28°C° 0.3 mm 2 mps 686 mmHg 42%
    15:00 +28°C° 0.3 mm 2 mps 686 mmHg 41%
    16:00 +27°C° 0.5 mm 2 mps 686 mmHg 44%
    17:00 +26°C° 0.5 mm 2 mps 686 mmHg 47%
    18:00 +26°C° 0.5 mm 1 mps 686 mmHg 50%
    19:00 +24°C° 0.6 mm 1 mps 686 mmHg 54%
    20:00 +23°C° 0.6 mm 1 mps 686 mmHg 58%
    21:00 +21°C° 0.6 mm 1 mps 686 mmHg 62%
    22:00 +21°C° 0.2 mm 1 mps 686 mmHg 63%
    23:00 +21°C° 0.2 mm 1 mps 686 mmHg 63%

    26 May, Saturday

    Time Temperature Precipitation Wind Pressure Humidity
    00:00 +20°C° 0.2 mm 1 mps 686 mmHg 64%
    01:00 +20°C° 0.2 mm 1 mps 686 mmHg 65%
    02:00 +20°C° 0.2 mm 1 mps 686 mmHg 66%
    03:00 +19°C° 0.2 mm 1 mps 686 mmHg 67%
    04:00 +20°C° 0.1 mm 1 mps 687 mmHg 66%
    05:00 +20°C° 0.1 mm 1 mps 687 mmHg 65%
    06:00 +21°C° 0.1 mm 1 mps 687 mmHg 64%
    07:00 +22°C° 0.1 mm 1 mps 687 mmHg 59%
    08:00 +24°C° 0.1 mm 1 mps 687 mmHg 55%
    09:00 +25°C° 0.1 mm 1 mps 687 mmHg 51%
    10:00 +26°C° 0.3 mm 1 mps 687 mmHg 48%
    11:00 +27°C° 0.3 mm 2 mps 687 mmHg 45%
    12:00 +28°C° 0.3 mm 2 mps 687 mmHg 43%
    13:00 +28°C° 0.6 mm 2 mps 687 mmHg 42%
    14:00 +29°C° 0.6 mm 2 mps 687 mmHg 41%
    15:00 +29°C° 0.6 mm 2 mps 687 mmHg 41%
    16:00 +28°C° 1.4 mm 2 mps 687 mmHg 45%
    17:00 +27°C° 1.4 mm 3 mps 687 mmHg 50%
    18:00 +26°C° 1.4 mm 3 mps 687 mmHg 54%
    19:00 +25°C° 0.7 mm 3 mps 687 mmHg 58%
    20:00 +23°C° 0.7 mm 2 mps 688 mmHg 62%
    21:00 +21°C° 0.7 mm 2 mps 688 mmHg 65%
    22:00 +21°C° 0.5 mm 2 mps 689 mmHg 66%
    23:00 +21°C° 0.5 mm 1 mps 689 mmHg 67%

    27 May, Sunday

    Time Temperature Precipitation Wind Pressure Humidity
    00:00 +21°C° 0.5 mm 1 mps 689 mmHg 68%
    01:00 +20°C° 0.2 mm 1 mps 689 mmHg 68%
    02:00 +20°C° 0.2 mm 1 mps 689 mmHg 69%
    03:00 +20°C° 0.2 mm 1 mps 689 mmHg 69%
    04:00 +20°C° 0 mm 1 mps 690 mmHg 68%
    05:00 +21°C° 0 mm 1 mps 690 mmHg 67%
    06:00 +21°C° 0 mm 1 mps 691 mmHg 66%
    07:00 +23°C° 0 mm 1 mps 691 mmHg 59%
    08:00 +24°C° 0 mm 1 mps 692 mmHg 52%
    09:00 +26°C° 0 mm 2 mps 692 mmHg 45%
    10:00 +27°C° 0 mm 2 mps 693 mmHg 42%
    11:00 +28°C° 0 mm 2 mps 693 mmHg 38%
    12:00 +29°C° 0 mm 2 mps 693 mmHg 35%
    13:00 +29°C° 0 mm 2 mps 693 mmHg 34%
    14:00 +29°C° 0 mm 2 mps 693 mmHg 34%
    15:00 +30°C° 0 mm 2 mps 693 mmHg 34%
    16:00 +29°C° 0.1 mm 3 mps 693 mmHg 38%
    17:00 +28°C° 0.1 mm 3 mps 693 mmHg 42%
    18:00 +27°C° 0.1 mm 4 mps 693 mmHg 46%
    19:00 +25°C° 0 mm 3 mps 694 mmHg 51%
    20:00 +22°C° 0 mm 3 mps 694 mmHg 57%
    21:00 +20°C° 0 mm 3 mps 694 mmHg 63%
    22:00 +20°C° 0 mm 3 mps 694 mmHg 65%
    23:00 +19°C° 0 mm 2 mps 694 mmHg 66%

    28 May, Monday

    Time Temperature Precipitation Wind Pressure Humidity
    00:00 +19°C° 0 mm 2 mps 694 mmHg 68%
    01:00 +18°C° 0 mm 2 mps 694 mmHg 69%
    02:00 +19°C° 0 mm 1 mps 694 mmHg 69%
    03:00 +18°C° 0 mm 1 mps 693 mmHg 70%
    04:00 +19°C° 0 mm 1 mps 693 mmHg 67%
    05:00 +20°C° 0 mm 1 mps 693 mmHg 65%
    06:00 +19°C° 0 mm 0 mps 693 mmHg 62%
    07:00 +23°C° 0 mm 1 mps 693 mmHg 57%
    08:00 +24°C° 0 mm 1 mps 693 mmHg 52%
    09:00 +26°C° 0 mm 1 mps 693 mmHg 46%
    10:00 +27°C° 0 mm 2 mps 693 mmHg 43%
    11:00 +28°C° 0 mm 2 mps 692 mmHg 40%
    12:00 +29°C° 0 mm 2 mps 692 mmHg 37%
    13:00 +30°C° 0 mm 2 mps 692 mmHg 36%
    14:00 +30°C° 0 mm 2 mps 691 mmHg 34%
    15:00 +31°C° 0 mm 2 mps 691 mmHg 33%
    16:00 +30°C° 0.1 mm 2 mps 691 mmHg 36%
    17:00 +30°C° 0.1 mm 1 mps 691 mmHg 39%
    18:00 +29°C° 0.1 mm 1 mps 691 mmHg 42%
    19:00 +27°C° 0.3 mm 1 mps 691 mmHg 47%
    20:00 +26°C° 0.3 mm 2 mps 691 mmHg 52%
    21:00 +24°C° 0.3 mm 2 mps 691 mmHg 57%
    22:00 +23°C° 0.3 mm 2 mps 691 mmHg 59%
    23:00 +21°C° 0.3 mm 2 mps 691 mmHg 62%
    Show more